Location: Unspecified
(0.0000°N, 0.0000°E)
Time: 18:50:29
(UTC+00:00)

Altair - Pass Details

Date: 23 November 2019
Orbit: 1502 x 1682 km, 47.2° (Epoch: 05 December)

Event Time Altitude Azimuth Distance (km) Brightness Sun altitude
Rises 10:46:40 0° 317° (NW) 4,731 9.8 65.0°
Reaches altitude 10° 10:49:41 10° 316° (NW) 3,772 9.4 65.4°
Maximum altitude 10:59:19 78° 231° (SW) 1,654 9.2 66.6°
Drops below altitude 10° 11:09:21 10° 145° (SE) 3,914 10.1 67.7°
Sets 11:12:34 0° 143° (SE) 4,917 10.4 68.1°
